Guymon, OK

12:22 PM CDT on August 31, 2016 (GMT -0500)
Guymon Municipal

Weather History for KGUY - June, 2015

Change the Weather History Date:

Saturday, June 20, 2015

  Actual Average Record
Temperature  
Mean Temperature 84 °F 76 °F  
Max Temperature 97 °F 89 °F 105 °F (2006)
Min Temperature 70 °F 62 °F 54 °F (2008)
Degree Days  
Heating Degree Days 0 0  
Month to date heating degree days 0 6  
Since 1 June heating degree days 0 6  
Since 1 July heating degree days 3998 4455  
Cooling Degree Days 19 11  
Month to date cooling degree days 226 161  
Year to date cooling degree days 290 269  
Since 1 June cooling degree days 226 161  
Growing Degree Days 34 (Base 50)    
Moisture  
Dew Point 60 °F    
Average Humidity 50    
Maximum Humidity 73    
Minimum Humidity 26    
Precipitation  
Precipitation 0.00 in 0.08 in 0.36 in (2008)
Month to date precipitation 1.69 2.23  
Year to date precipitation 12.64 8.48  
Snow  
Snow 0.00 in - - ()
Month to date snowfall 0.0  
Since 1 June snowfall 0.0  
Since 1 July snowfall 23.3  
Snow Depth 0.00 in    
Sea Level Pressure  
Sea Level Pressure 29.72 in    
Wind  
Wind Speed 19 mph (SSW)    
Max Wind Speed 33 mph    
Max Gust Speed 42 mph    
Visibility 10 miles    
Events      
T = Trace of Precipitation, MM = Missing Value Source: NWS Daily Summary

Daily Weather History Graph

Daily Weather History Graph

Search for Another Location

Airport or City:

Trip Planner

Search our weather history database for the weather conditions in past years. The results will help you decide how hot, cold, wet, or windy it might be!

Date:

Astronomy

Jun. 20, 2015 Rise Set
Actual Time 6:27 AM CDT 9:07 PM CDT
Civil Twilight 5:56 AM CDT 9:38 PM CDT
Nautical Twilight 5:18 AM CDT 10:16 PM CDT
Astronomical Twilight 4:35 AM CDT 10:59 PM CDT
Moon 10:29 AM CDT (6/20) No Moon Set
Length of Visible Light 15h 41m
Length of Day
14h 40m
Waxing Crescent, 17% of the Moon is Illuminated
Jun 20
Waxing Crescent
Jun 24
First Quarter
Jul 1
Full
Jul 8
Last Quarter
Jul 15
New

Hourly Weather History & Observations

Time (CDT) Temp. Heat Index Dew Point Humidity Pressure Visibility Wind Dir Wind Speed Gust Speed Precip Events Conditions
12:53 AM 73.0 °F - 61.0 °F 66% 29.77 in 10.0 mi South 11.5 mph - N/A   Clear
1:53 AM 72.0 °F - 62.1 °F 71% 29.76 in 10.0 mi South 12.7 mph - N/A   Clear
2:53 AM 73.0 °F - 62.1 °F 68% 29.74 in 10.0 mi South 13.8 mph - N/A   Clear
3:53 AM 72.0 °F - 62.1 °F 71% 29.73 in 10.0 mi SSW 16.1 mph - N/A   Clear
4:53 AM 70.0 °F - 61.0 °F 73% 29.73 in 10.0 mi SSW 15.0 mph - N/A   Clear
5:53 AM 70.0 °F - 61.0 °F 73% 29.72 in 10.0 mi SSW 17.3 mph - N/A   Clear
6:53 AM 72.0 °F - 60.1 °F 66% 29.72 in 10.0 mi SSW 19.6 mph - N/A   Clear
7:53 AM 73.9 °F - 61.0 °F 64% 29.73 in 10.0 mi SSW 19.6 mph - N/A   Clear
8:53 AM 79.0 °F - 62.1 °F 56% 29.73 in 10.0 mi SSW 23.0 mph 34.5 mph N/A   Clear
9:53 AM 84.0 °F 84.5 °F 62.1 °F 47% 29.72 in 10.0 mi SSW 27.6 mph 36.8 mph N/A   Clear
10:53 AM 87.1 °F 87.0 °F 61.0 °F 41% 29.73 in 10.0 mi SW 25.3 mph 38.0 mph N/A   Clear
11:53 AM 90.0 °F 89.7 °F 60.1 °F 37% 29.72 in 10.0 mi SSW 29.9 mph 35.7 mph N/A   Clear
12:53 PM 91.9 °F 92.5 °F 62.1 °F 37% 29.73 in 10.0 mi SW 25.3 mph 33.4 mph N/A   Clear
1:53 PM 93.9 °F 94.0 °F 61.0 °F 33% 29.72 in 10.0 mi SW 21.9 mph 28.8 mph N/A   Clear
2:53 PM 96.1 °F 96.0 °F 60.1 °F 30% 29.70 in 10.0 mi SSW 20.7 mph 28.8 mph N/A   Clear
3:53 PM 97.0 °F 96.5 °F 59.0 °F 28% 29.70 in 10.0 mi SSW 16.1 mph 26.5 mph N/A   Clear
4:53 PM 97.0 °F 96.1 °F 57.9 °F 27% 29.69 in 10.0 mi SSW 21.9 mph 29.9 mph N/A   Clear
5:53 PM 96.1 °F 94.8 °F 57.0 °F 27% 29.68 in 10.0 mi South 20.7 mph 25.3 mph N/A   Clear
6:53 PM 95.0 °F 93.4 °F 55.9 °F 27% 29.67 in 10.0 mi South 21.9 mph 28.8 mph N/A   Clear
7:53 PM 91.0 °F 89.7 °F 57.0 °F 32% 29.69 in 10.0 mi South 19.6 mph 27.6 mph N/A   Clear
8:53 PM 86.0 °F 85.0 °F 57.9 °F 38% 29.70 in 10.0 mi South 12.7 mph - N/A   Clear
9:53 PM 82.0 °F 82.4 °F 60.1 °F 47% 29.73 in 10.0 mi South 11.5 mph - N/A   Clear